Weather History for Hilton Head Island, SC

Change the Weather History Date:

Tuesday, March 13, 2012

  Actual Average Record
Temperature  
Mean Temperature 65 °F -  
Max Temperature 73 °F 71 °F 85 °F (1955)
Min Temperature 57 °F 48 °F 27 °F (1960)
Growing Degree Days 15 (Base 50)    
Moisture  
Dew Point 59 °F    
Average Humidity 89    
Maximum Humidity 100    
Minimum Humidity 57    
Precipitation  
Precipitation 0.00 in - - ()
Sea Level Pressure  
Sea Level Pressure 30.27 in    
Wind  
Wind Speed 2 mph (SSW)    
Max Wind Speed 8 mph    
Max Gust Speed -    
Visibility 10 miles    
Events Rain    
Averages and records for this station are not official NWS values.
T = Trace of Precipitation, MM = Missing Value Source: NWS Daily Summary

Daily Weather History Graph

Daily Weather History Graph

Search for Another Location

Airport:

Trip Planner

Search our weather history database for the weather conditions in past years. The results will help you decide how hot, cold, wet, or windy it might be!

Date:

Astronomy

Mar. 13, 2012 Rise Set
Actual Time 7:34 AM EDT 7:29 PM EDT
Civil Twilight 7:10 AM EDT 7:54 PM EDT
Nautical Twilight 6:42 AM EDT 8:22 PM EDT
Astronomical Twilight 6:13 AM EDT 8:51 PM EDT
Moon 12:38 AM EDT (3/13) 11:08 AM EDT (3/13)
Length of Visible Light 12h 43m
Length of Day
11h 54m
Waning Gibbous, 66% of the Moon is Illuminated
Mar 13
Waning Gibbous
Mar 14
Last Quarter
Mar 22
New
Mar 30
First Quarter
Apr 6
Full

Hourly Weather History & Observations

Time (EDT) Temp. Dew Point Humidity Pressure Visibility Wind Dir Wind Speed Gust Speed Precip Events Conditions
12:15 AM 62.6 °F 57.2 °F 82% 30.31 in 10.0 mi SSE 3.5 mph - 0.00 in   Clear
12:35 AM 62.6 °F 57.2 °F 82% 30.31 in 10.0 mi Calm Calm - 0.00 in   Clear
12:55 AM 60.8 °F 57.2 °F 88% 30.31 in 10.0 mi Calm Calm - 0.00 in   Clear
1:15 AM 59.0 °F 57.2 °F 94% 30.31 in 10.0 mi Calm Calm - 0.00 in   Clear
1:55 AM 57.2 °F 57.2 °F 100% 30.29 in 10.0 mi Calm Calm - 0.00 in   Clear
2:15 AM 57.2 °F 57.2 °F 100% 30.29 in 10.0 mi Calm Calm - 0.00 in   Mostly Cloudy
2:35 AM 59.0 °F 57.2 °F 94% 30.29 in 10.0 mi South 3.5 mph - 0.00 in   Mostly Cloudy
2:55 AM 59.0 °F 57.2 °F 94% 30.29 in 10.0 mi South 3.5 mph - 0.00 in   Mostly Cloudy
3:15 AM 59.0 °F 57.2 °F 94% 30.28 in 10.0 mi South 5.8 mph - 0.00 in   Scattered Clouds
3:35 AM 59.0 °F 57.2 °F 94% 30.28 in 10.0 mi Calm Calm - 0.00 in   Clear
3:55 AM 59.0 °F 57.2 °F 94% 30.28 in 10.0 mi South 3.5 mph - 0.00 in   Mostly Cloudy
4:15 AM 60.8 °F 57.2 °F 88% 30.27 in 10.0 mi SSW 3.5 mph - 0.00 in   Overcast
4:55 AM 60.8 °F 57.2 °F 88% 30.27 in 10.0 mi Calm Calm - 0.00 in   Scattered Clouds
5:15 AM 60.8 °F 57.2 °F 88% 30.27 in 10.0 mi Calm Calm - 0.00 in   Mostly Cloudy
5:35 AM 60.8 °F 57.2 °F 88% 30.27 in 10.0 mi Calm Calm - 0.00 in   Mostly Cloudy
5:55 AM 59.0 °F 57.2 °F 94% 30.27 in 10.0 mi Calm Calm - 0.00 in   Mostly Cloudy
6:15 AM 59.0 °F 57.2 °F 94% 30.28 in 10.0 mi Calm Calm - 0.00 in   Mostly Cloudy
6:35 AM 60.8 °F 57.2 °F 88% 30.28 in 10.0 mi Calm Calm - 0.00 in   Overcast
6:48 AM 60.8 °F 57.2 °F 88% 30.28 in 10.0 mi Calm Calm - N/A   Overcast
8:50 AM 62.6 °F 60.8 °F 94% 30.31 in 5.0 mi Calm Calm - N/A Rain Rain
9:50 AM 62.6 °F 62.6 °F 100% 30.32 in 7.0 mi Calm Calm - N/A Rain Light Rain
10:50 AM 68.0 °F 60.8 °F 78% 30.32 in 10.0 mi SSW 4.6 mph - N/A   Mostly Cloudy
11:50 AM 69.8 °F 59.0 °F 68% 30.32 in 10.0 mi SSW 4.6 mph - N/A   Mostly Cloudy
12:50 PM 73.4 °F 59.0 °F 61% 30.30 in 10.0 mi SW 4.6 mph - N/A   Scattered Clouds
1:50 PM 71.6 °F 57.2 °F 60% 30.29 in 10.0 mi SSW 5.8 mph - N/A   Scattered Clouds
2:50 PM 71.6 °F 55.4 °F 57% 30.26 in 10.0 mi SSW 8.1 mph - N/A   Partly Cloudy
4:50 PM 73.4 °F 59.0 °F 61% 30.23 in 10.0 mi SSW 8.1 mph - N/A   Clear
5:50 PM 71.6 °F 59.0 °F 64% 30.23 in 10.0 mi South 5.8 mph - N/A   Scattered Clouds
6:50 PM 66.2 °F 60.8 °F 83% 30.25 in 3.0 mi West 4.6 mph - N/A Rain Rain
7:50 PM 62.6 °F 62.6 °F 100% 30.23 in 8.0 mi SSW 4.6 mph - N/A   Mostly Cloudy
9:15 PM 60.8 °F 60.8 °F 100% 30.24 in 10.0 mi SSW 4.6 mph - 0.00 in   Clear
9:35 PM 60.8 °F 60.8 °F 100% 30.24 in 10.0 mi SSW 5.8 mph - 0.00 in   Clear
9:55 PM 60.8 °F 60.8 °F 100% 30.24 in 10.0 mi SSW 5.8 mph - 0.00 in   Clear
10:15 PM 60.8 °F 60.8 °F 100% 30.24 in 10.0 mi SSW 5.8 mph - 0.00 in   Clear
10:35 PM 60.8 °F 60.8 °F 100% 30.24 in 10.0 mi SSW 4.6 mph - 0.00 in   Clear
10:55 PM 60.8 °F 60.8 °F 100% 30.24 in 10.0 mi SSW 4.6 mph - 0.00 in   Clear
11:15 PM 60.8 °F 60.8 °F 100% 30.24 in 10.0 mi Calm Calm - 0.00 in   Clear
11:35 PM 60.8 °F 60.8 °F 100% 30.25 in 8.0 mi Calm Calm - 0.00 in   Clear
11:55 PM 60.8 °F 60.8 °F 100% 30.25 in 9.0 mi Calm Calm - 0.00 in   Clear